Location: Unspecified
(50.7693°N, 0.0000°E)
Time: 07:38:04
(UTC+00:00)

Transit 2A - Pass Details

Date: 20 August 2020
Orbit: 591 x 967 km, 66.7° (Epoch: 20 September)

Event Time Altitude Azimuth Distance (km) Brightness Sun altitude
Rises 22:00:08 0° 299° (WNW) 3,625 10.5 -21.7°
Reaches altitude 10° 22:03:33 10° 317° (NW) 2,706 9.9 -22.0°
Maximum altitude 22:07:55 19° 1° (N) 2,147 9.0 -22.3°
Drops below altitude 10° 22:12:16 10° 44° (NE) 2,702 9.0 -22.7°
Sets 22:15:41 0° 62° (ENE) 3,618 9.5 -23.0°
